Regional Weather Roundup
Issued by NWS Little Rock, AR

Current Version | Previous Version | Text Only | Print | Product List | Glossary On
Versions: 1 2 3 4 5 6 7 8 9 10 11 12 13 14 15 16 17 18 19 20 21 22 23 24 25 26 27 28 29 30 31
000
ASUS44 KLZK 241005
RWRLZK

WEATHER ROUNDUP FOR ARKANSAS
NATIONAL WEATHER SERVICE LITTLE ROCK AR
500 AM CDT MON JUL 24 2017

NOTE: "FAIR" INDICATES FEW OR NO CLOUDS BELOW 12,000 FEET WITH NO
SIGNIFICANT WEATHER AND/OR OBSTRUCTIONS TO VISIBILITY.

ARZ001-003-010-029-241100-
NORTHWEST ARKANSAS

CITY           SKY/WX    TMP DP  RH WIND       PRES   REMARKS
FAYETTEVILLE   CLOUDY    67  67 100 CALM      29.98R
FORT SMITH     CLOUDY    74  74 100 W8        29.93R
HARRISON       PTCLDY    71  68  90 NW7       29.96R
BENTONVILLE    PTCLDY    72  66  83 CALM      29.98R
ROGERS         CLEAR     69  68  96 CALM      29.98R
SILOAM SPGS    PTCLDY    66  64  94 CALM      29.97R
HIGHFILL       PTCLDY    68  67  96 CALM      29.98R
$$

ARZ004-005-016-241100-
NORTH CENTRAL ARKANSAS

CITY           SKY/WX    TMP DP  RH WIND       PRES   REMARKS
BATESVILLE     CLOUDY    75  70  83 SW3       29.89R
FLIPPIN        CLOUDY    72  64  78 CALM      29.90S
MTN HOME       CLOUDY    73  70  90 CALM      29.92S
$$

ARZ040-041-241100-
WEST CENTRAL ARKANSAS

CITY           SKY/WX    TMP DP  RH WIND       PRES   REMARKS
MENA           CLOUDY    72  72 100 CALM      29.96S
MOUNT IDA      CLOUDY    72  69  90 CALM      29.92S
$$

ARZ009-017-025-026-028-241100-
NORTHEAST ARKANSAS

CITY           SKY/WX    TMP DP  RH WIND       PRES   REMARKS
CORNING        FAIR      75  75 100 CALM      29.88S
JONESBORO      CLOUDY    75  73  93 SE7       29.90R
WALNUT RIDGE   CLOUDY    73  72  94 SE6       29.88R
BLYTHEVILLE    CLOUDY    75  73  93 S5        29.90R
$$

ARZ022-023-033-042-044-241100-
CENTRAL ARKANSAS

CITY           SKY/WX    TMP DP  RH WIND       PRES   REMARKS
LITTLE ROCK    CLOUDY    72  72 100 S3        29.91R
N LITTLE ROCK    N/A     73  71  95 CALM      29.90R
JACKSONVILLE   CLOUDY    74  73  99 CALM      29.90R
CONWAY           N/A     75  73  94 CALM      29.88R
SEARCY         PTCLDY    72  72 100 MISG        N/A
HOT SPRINGS    CLOUDY    73  73 100 W6        29.92R
RUSSELLVILLE   CLOUDY    72  72 100 CALM      29.90R
CLINTON        FAIR      73  72  94 CALM      29.90R
$$

ARZ036-241100-
EAST ARKANSAS

CITY           SKY/WX    TMP DP  RH WIND       PRES   REMARKS
WEST MEMPHIS   CLOUDY    73  73 100 CALM      29.89R
$$

ARZ050-053-066-070-073-241100-
SOUTHWEST ARKANSAS

CITY           SKY/WX    TMP DP  RH WIND       PRES   REMARKS
ARKADELPHIA    FAIR      73  71  93 NW3       29.91R
CAMDEN         PTCLDY    73  68  83 CALM      29.90R
TEXARKANA      CLOUDY    73  73 100 CALM      29.91S
EL DORADO      MOCLDY    72  72 100 SW5       29.90S
DE QUEEN       CLOUDY    72  72 100 W5        29.92R
$$

ARZ056-057-069-241100-
SOUTHEAST ARKANSAS

CITY           SKY/WX    TMP DP  RH WIND       PRES   REMARKS
PINE BLUFF     CLOUDY    73  72  96 SE3       29.91R
STUTTGART      CLOUDY    73  61  64 CALM      29.91R
MONTICELLO     MOCLDY    75  73  93 SW3       29.90R

$$






USA.gov is the U.S. government's official web portal to all federal, state and local government web resources and services.